When you browse on this site, cookies collect data to enhance your experience and personalize the content and advertising you see.
Visit our Privacy Policy to learn more. By continuing to use the site, you agree to this use of cookies and data.
  • In Spain
  • List of Countries
  • For 7 days
  • Water Temperature
  • Weather Map
  • Weather Widgets
  • user-avatar
    Login

    Hourly Weather Encamp

    Today, 23 August, Friday

    Time Temperature Precipitation Wind Pressure Humidity
    00:00 +11°C° 0 mm 1 mps 627 mmHg 60%
    01:00 +11°C° 0 mm 1 mps 627 mmHg 64%
    02:00 +10°C° 0 mm 1 mps 627 mmHg 67%
    03:00 +10°C° 0 mm 1 mps 627 mmHg 70%
    04:00 +11°C° 0 mm 1 mps 627 mmHg 74%
    05:00 +11°C° 0 mm 1 mps 627 mmHg 78%
    06:00 +12°C° 0 mm 1 mps 627 mmHg 80%
    07:00 +15°C° 0 mm 1 mps 629 mmHg 68%
    08:00 +18°C° 0 mm 1 mps 630 mmHg 55%
    09:00 +21°C° 0 mm 1 mps 631 mmHg 42%
    10:00 +22°C° 0 mm 1 mps 631 mmHg 40%
    11:00 +23°C° 0 mm 1 mps 631 mmHg 37%
    12:00 +24°C° 0 mm 2 mps 631 mmHg 34%
    13:00 +24°C° 0 mm 2 mps 631 mmHg 36%
    14:00 +24°C° 0 mm 2 mps 631 mmHg 37%
    15:00 +24°C° 0 mm 2 mps 630 mmHg 39%
    16:00 +22°C° 0 mm 1 mps 629 mmHg 47%
    17:00 +21°C° 0 mm 1 mps 629 mmHg 56%
    18:00 +17°C° 0 mm 0 mps 628 mmHg 65%
    19:00 +18°C° 0 mm 1 mps 628 mmHg 69%
    20:00 +15°C° 0 mm 1 mps 627 mmHg 73%
    21:00 +14°C° 0 mm 1 mps 627 mmHg 77%
    22:00 +14°C° 0 mm 1 mps 627 mmHg 77%
    23:00 +13°C° 0 mm 1 mps 627 mmHg 76%

    Tomorrow, 24 August, Saturday

    Time Temperature Precipitation Wind Pressure Humidity
    00:00 +13°C° 0 mm 1 mps 627 mmHg 76%
    01:00 +13°C° 0 mm 1 mps 627 mmHg 75%
    02:00 +13°C° 0 mm 1 mps 626 mmHg 75%
    03:00 +13°C° 0 mm 1 mps 626 mmHg 74%
    04:00 +13°C° 0 mm 1 mps 626 mmHg 74%
    05:00 +13°C° 0 mm 1 mps 626 mmHg 74%
    06:00 +13°C° 0 mm 1 mps 626 mmHg 74%
    07:00 +16°C° 0 mm 1 mps 628 mmHg 64%
    08:00 +20°C° 0 mm 1 mps 629 mmHg 54%
    09:00 +23°C° 0 mm 1 mps 630 mmHg 44%
    10:00 +24°C° 0 mm 1 mps 630 mmHg 40%
    11:00 +24°C° 0 mm 1 mps 630 mmHg 37%
    12:00 +25°C° 0 mm 2 mps 630 mmHg 33%
    13:00 +25°C° 0 mm 1 mps 630 mmHg 36%
    14:00 +24°C° 0 mm 1 mps 629 mmHg 38%
    15:00 +24°C° 0 mm 1 mps 629 mmHg 41%
    16:00 +22°C° 0 mm 1 mps 628 mmHg 47%
    17:00 +21°C° 0 mm 1 mps 628 mmHg 53%
    18:00 +19°C° 0 mm 1 mps 627 mmHg 60%
    19:00 +18°C° 0 mm 1 mps 627 mmHg 61%
    20:00 +16°C° 0 mm 1 mps 627 mmHg 62%
    21:00 +15°C° 0 mm 1 mps 627 mmHg 63%
    22:00 +14°C° 0 mm 1 mps 626 mmHg 63%
    23:00 +14°C° 0 mm 1 mps 626 mmHg 62%

    Day after tomorrow, 25 August, Sunday

    Time Temperature Precipitation Wind Pressure Humidity
    00:00 +14°C° 0 mm 1 mps 626 mmHg 62%
    01:00 +13°C° 0 mm 1 mps 626 mmHg 61%
    02:00 +13°C° 0 mm 1 mps 626 mmHg 60%
    03:00 +13°C° 0 mm 1 mps 626 mmHg 58%
    04:00 +13°C° 0 mm 1 mps 626 mmHg 58%
    05:00 +13°C° 0 mm 1 mps 626 mmHg 58%
    06:00 +14°C° 0 mm 1 mps 626 mmHg 58%
    07:00 +16°C° 0 mm 1 mps 627 mmHg 52%
    08:00 +20°C° 0 mm 1 mps 628 mmHg 45%
    09:00 +23°C° 0 mm 1 mps 630 mmHg 39%
    10:00 +24°C° 0 mm 1 mps 630 mmHg 37%
    11:00 +25°C° 0 mm 1 mps 630 mmHg 35%
    12:00 +25°C° 0 mm 2 mps 630 mmHg 33%
    13:00 +25°C° 0 mm 2 mps 629 mmHg 37%
    14:00 +24°C° 0 mm 2 mps 629 mmHg 40%
    15:00 +24°C° 0 mm 2 mps 628 mmHg 44%
    16:00 +22°C° 0 mm 1 mps 628 mmHg 52%
    17:00 +21°C° 0 mm 1 mps 627 mmHg 59%
    18:00 +19°C° 0 mm 1 mps 626 mmHg 67%
    19:00 +18°C° 0 mm 1 mps 626 mmHg 70%
    20:00 +16°C° 0 mm 1 mps 626 mmHg 73%
    21:00 +15°C° 0 mm 1 mps 626 mmHg 77%
    22:00 +14°C° 0 mm 1 mps 626 mmHg 78%
    23:00 +14°C° 0 mm 1 mps 626 mmHg 80%

    26 August, Monday

    Time Temperature Precipitation Wind Pressure Humidity
    00:00 +14°C° 0 mm 1 mps 626 mmHg 81%
    01:00 +14°C° 0 mm 1 mps 625 mmHg 80%
    02:00 +13°C° 0 mm 1 mps 625 mmHg 80%
    03:00 +13°C° 0 mm 1 mps 625 mmHg 79%
    04:00 +13°C° 0 mm 1 mps 625 mmHg 78%
    05:00 +13°C° 0 mm 1 mps 625 mmHg 77%
    06:00 +14°C° 0 mm 1 mps 625 mmHg 76%
    07:00 +16°C° 0 mm 1 mps 626 mmHg 69%
    08:00 +19°C° 0 mm 1 mps 627 mmHg 61%
    09:00 +22°C° 0 mm 1 mps 628 mmHg 53%
    10:00 +23°C° 0 mm 1 mps 628 mmHg 48%
    11:00 +24°C° 0 mm 2 mps 628 mmHg 44%
    12:00 +25°C° 0 mm 2 mps 628 mmHg 39%
    13:00 +24°C° 0 mm 2 mps 628 mmHg 40%
    14:00 +24°C° 0 mm 2 mps 628 mmHg 40%
    15:00 +24°C° 0 mm 2 mps 627 mmHg 40%
    16:00 +21°C° 0 mm 2 mps 627 mmHg 47%
    17:00 +21°C° 0 mm 1 mps 626 mmHg 53%
    18:00 +19°C° 0 mm 1 mps 625 mmHg 60%
    19:00 +18°C° 0 mm 1 mps 625 mmHg 63%
    20:00 +15°C° 0 mm 1 mps 625 mmHg 66%
    21:00 +13°C° 0 mm 1 mps 624 mmHg 69%
    22:00 +13°C° 0 mm 1 mps 624 mmHg 68%
    23:00 +13°C° 0 mm 1 mps 624 mmHg 67%

    27 August, Tuesday

    Time Temperature Precipitation Wind Pressure Humidity
    00:00 +13°C° 0 mm 1 mps 624 mmHg 66%
    01:00 +13°C° 0 mm 1 mps 624 mmHg 68%
    02:00 +13°C° 0 mm 1 mps 624 mmHg 69%
    03:00 +13°C° 0 mm 1 mps 624 mmHg 70%
    04:00 +13°C° 0 mm 1 mps 624 mmHg 71%
    05:00 +12°C° 0 mm 0 mps 625 mmHg 71%
    06:00 +12°C° 0 mm 0 mps 625 mmHg 71%
    07:00 +15°C° 0 mm 1 mps 626 mmHg 65%
    08:00 +18°C° 0 mm 1 mps 626 mmHg 59%
    09:00 +19°C° 0 mm 1 mps 627 mmHg 53%
    10:00 +18°C° 0.1 mm 2 mps 627 mmHg 55%
    11:00 +19°C° 0.1 mm 2 mps 627 mmHg 58%
    12:00 +19°C° 0.1 mm 2 mps 627 mmHg 60%
    13:00 +18°C° 0.4 mm 1 mps 627 mmHg 69%
    14:00 +16°C° 0.4 mm 1 mps 626 mmHg 77%
    15:00 +15°C° 0.4 mm 1 mps 626 mmHg 85%
    16:00 +15°C° 0.4 mm 1 mps 626 mmHg 87%
    17:00 +14°C° 0.4 mm 1 mps 626 mmHg 89%
    18:00 +14°C° 0.4 mm 1 mps 625 mmHg 90%
    19:00 +13°C° 0.1 mm 1 mps 626 mmHg 92%
    20:00 +13°C° 0.1 mm 1 mps 626 mmHg 93%
    21:00 +12°C° 0.1 mm 1 mps 626 mmHg 94%
    22:00 +12°C° 0 mm 1 mps 626 mmHg 94%
    23:00 +12°C° 0 mm 1 mps 626 mmHg 94%

    28 August, Wednesday

    Time Temperature Precipitation Wind Pressure Humidity
    00:00 +12°C° 0 mm 1 mps 626 mmHg 94%
    01:00 +11°C° 0 mm 1 mps 626 mmHg 93%
    02:00 +11°C° 0 mm 1 mps 626 mmHg 92%
    03:00 +11°C° 0 mm 1 mps 625 mmHg 91%
    04:00 +11°C° 0 mm 1 mps 626 mmHg 89%
    05:00 +11°C° 0 mm 1 mps 626 mmHg 87%
    06:00 +11°C° 0 mm 1 mps 626 mmHg 85%
    07:00 +14°C° 0 mm 1 mps 627 mmHg 76%
    08:00 +18°C° 0 mm 1 mps 628 mmHg 67%
    09:00 +18°C° 0 mm 0 mps 630 mmHg 59%
    10:00 +22°C° 0 mm 1 mps 630 mmHg 52%
    11:00 +23°C° 0 mm 1 mps 630 mmHg 46%
    12:00 +24°C° 0 mm 1 mps 630 mmHg 40%
    13:00 +24°C° 0 mm 1 mps 630 mmHg 43%
    14:00 +23°C° 0 mm 1 mps 630 mmHg 45%
    15:00 +23°C° 0 mm 1 mps 629 mmHg 47%
    16:00 +22°C° 0 mm 1 mps 629 mmHg 55%
    17:00 +20°C° 0 mm 1 mps 628 mmHg 63%
    18:00 +18°C° 0 mm 1 mps 627 mmHg 71%
    19:00 +16°C° 0 mm 1 mps 627 mmHg 74%
    20:00 +15°C° 0 mm 1 mps 627 mmHg 76%
    21:00 +13°C° 0 mm 1 mps 627 mmHg 79%
    22:00 +13°C° 0 mm 1 mps 627 mmHg 74%
    23:00 +13°C° 0 mm 1 mps 627 mmHg 69%
    Show more